EW2672 Weather Reports


Display with metric or nautical units.
time (UTC)temp
F
wind
direction
speed
MPH
gust
MPH
rain 1hr
in
rain 24hr
in
rain mn
in
humidity
%
barometer
mb
20200329062003 55 0.0 3.0 0.00 0.00 0.00 57 1016.8
20200329061400 54 0.0 2.0 0.00 0.00 0.00 60 1016.7
20200329060757 53 0.0 2.0 0.00 0.00 0.00 62 1016.7
20200329060154 52 0.0 2.0 0.00 0.00 0.00 65 1016.7
20200329055551 52 0.0 0.0 0.00 0.00 0.00 67 1016.7
20200329054948 53 0.0 0.0 0.00 0.00 0.00 67 1016.7
20200329054345 53 0.0 0.0 0.00 0.00 0.00 67 1016.7
20200329053742 53 0.0 0.0 0.00 0.00 0.00 66 1016.7
20200329053139 53 0.0 0.0 0.00 0.00 0.00 66 1016.7
20200329052536 54 0.0 0.0 0.00 0.00 0.00 64 1016.7
20200329051933 54 0.0 0.0 0.00 0.00 0.00 63 1016.8
20200329051330 54 0.0 0.0 0.00 0.00 0.00 64 1016.7
20200329050727 54 0.0 0.0 0.00 0.00 0.00 64 1016.7
20200329050124 54 0.0 0.0 0.00 0.00 0.00 64 1016.8
20200329045521 53 0.0 0.0 0.00 0.00 0.00 65 1016.8
20200329044917 54 0.0 0.0 0.00 0.00 0.00 66 1016.8
20200329044314 54 0.0 0.0 0.00 0.00 0.00 66 1016.7
20200329043711 54 0.0 0.0 0.00 0.00 0.00 66 1016.6
20200329043108 54 0.0 0.0 0.00 0.00 0.00 64 1016.6
20200329042505 55 0.0 0.0 0.00 0.00 0.00 64 1016.7
20200329041902 55 0.0 0.0 0.00 0.00 0.00 63 1016.7
20200329041259 56 0.0 0.0 0.00 0.00 0.00 62 1016.8
20200329040656 56 0.0 0.0 0.00 0.00 0.00 61 1016.8
20200329040053 56 0.0 0.0 0.00 0.00 0.00 60 1016.7
20200329035450 56 0.0 0.0 0.00 0.00 0.00 62 1016.8
20200329034847 56 0.0 1.0 0.00 0.00 0.00 62 1016.7
20200329034244 56 0.0 1.0 0.00 0.00 0.00 64 1016.6
20200329033641 56 0.0 0.0 0.00 0.00 0.00 63 1016.7
20200329033038 56 0.0 0.0 0.00 0.00 0.00 63 1016.6
20200329032435 56 0.0 0.0 0.00 0.00 0.00 66 1016.6
20200329031832 56 0.0 0.0 0.00 0.00 0.00 64 1016.4
20200329031229 56 0.0 0.0 0.00 0.00 0.00 67 1016.4
20200329030626 56 0.0 0.0 0.00 0.00 0.00 68 1016.3
20200329030023 56 0.0 0.0 0.00 0.00 0.00 67 1016.3
20200329025420 56 0.0 0.0 0.00 0.00 0.00 67 1016.1
20200329024817 57 0.0 0.0 0.00 0.00 0.00 65 1016.1
20200329024214 57 0.0 0.0 0.00 0.00 0.00 65 1016.1
20200329023611 58 0.0 0.0 0.00 0.00 0.00 65 1015.8
20200329023008 58 0.0 0.0 0.00 0.00 0.00 62 1015.7
20200329022405 58 0.0 0.0 0.00 0.00 0.00 62 1015.7
20200329021802 58 0.0 0.0 0.00 0.00 0.00 62 1015.5
20200329021158 59 0.0 0.0 0.00 0.00 0.00 63 1015.4
20200329020555 59 0.0 0.0 0.00 0.00 0.00 63 1015.1
20200329015952 59 0.0 0.0 0.00 0.00 0.00 64 1015.2
20200329015349 60 0.0 0.0 0.00 0.00 0.00 64 1015.1
20200329014746 60 0.0 0.0 0.00 0.00 0.00 64 1015.0
20200329014143 61 0.0 0.0 0.00 0.00 0.00 62 1014.9
20200329013540 62 0.0 0.0 0.00 0.00 0.00 59 1014.9
20200329012937 62 0.0 0.0 0.00 0.00 0.00 61 1014.9
20200329012334 63 0.0 0.0 0.00 0.00 0.00 58 1014.8
20200329011731 64 0.0 0.0 0.00 0.00 0.00 56 1014.6
20200329011128 65 0.0 0.0 0.00 0.00 0.00 57 1014.4
20200329010525 66 0.0 0.0 0.00 0.00 0.00 53 1014.4
20200329005922 67 0.0 0.0 0.00 0.00 0.00 51 1014.2
20200329005319 68 0.0 0.0 0.00 0.00 0.00 50 1014.2
20200329004734 69 0.0 0.0 0.00 0.00 0.00 47 1014.1
20200329004113 70 0.0 0.0 0.00 0.00 0.00 47 1014.0
20200329003510 71 0.0 0.0 0.00 0.00 0.00 46 1014.0
20200329002907 72 0.0 0.0 0.00 0.00 0.00 46 1013.9
20200329002304 72 0.0 0.0 0.00 0.00 0.00 46 1013.8
20200329001701 72 0.0 0.0 0.00 0.00 0.00 46 1013.7
20200329001058 72 0.0 0.0 0.00 0.00 0.00 46 1013.6
20200329000455 71 0.0 1.0 0.00 0.00 0.00 41 1013.5
20200328235852 71 0.0 1.0 0.00 0.00 0.00 40 1013.5
20200328235249 72 0.0 2.0 0.00 0.00 0.00 38 1013.6
20200328234646 72 0.0 2.0 0.00 0.00 0.00 38 1013.4
20200328234043 72 0.0 5.0 0.00 0.00 0.00 37 1013.3
20200328233439 72 0.0 3.0 0.00 0.00 0.00 37 1013.2
20200328232836 72 0.0 3.0 0.00 0.00 0.00 36 1013.2
20200328232233 72 360 1.0 4.0 0.00 0.00 0.00 35 1013.2
20200328231630 72 360 1.0 4.0 0.00 0.00 0.00 35 1013.3
20200328231027 72 7 1.0 4.0 0.00 0.00 0.00 33 1013.2
20200328230424 72 348 1.0 5.0 0.00 0.00 0.00 32 1013.1
20200328225821 73 6 1.0 5.0 0.00 0.00 0.00 31 1013.1
20200328225218 73 358 1.0 4.0 0.00 0.00 0.00 32 1013.1
20200328224615 73 1 1.0 4.0 0.00 0.00 0.00 32 1012.9
20200328224012 73 0.0 3.0 0.00 0.00 0.00 32 1013.0
20200328223409 73 15 1.0 5.0 0.00 0.00 0.00 30 1013.0
20200328222806 74 4 1.0 10.0 0.00 0.00 0.00 30 1012.9
20200328222203 74 12 2.0 10.0 0.00 0.00 0.00 29 1012.9
20200328221600 74 349 2.0 5.0 0.00 0.00 0.00 29 1012.9
20200328220957 74 333 1.0 4.0 0.00 0.00 0.00 30 1012.8
20200328220354 74 317 1.0 5.0 0.00 0.00 0.00 30 1012.8
20200328215751 75 336 1.0 9.0 0.00 0.00 0.00 30 1012.7
20200328215148 74 360 2.0 6.0 0.00 0.00 0.00 29 1012.8
20200328214545 74 310 1.0 6.0 0.00 0.00 0.00 29 1012.6
20200328213942 74 345 1.0 8.0 0.00 0.00 0.00 30 1012.7
20200328213339 75 335 1.0 8.0 0.00 0.00 0.00 29 1012.8
20200328212736 75 339 2.0 9.0 0.00 0.00 0.00 29 1012.7
20200328212133 75 310 3.0 10.0 0.00 0.00 0.00 28 1012.7
20200328211530 75 314 2.0 8.0 0.00 0.00 0.00 28 1012.7
20200328210928 76 359 2.0 8.0 0.00 0.00 0.00 29 1012.7
20200328210324 76 325 3.0 9.0 0.00 0.00 0.00 28 1012.5
20200328205720 76 319 2.0 7.0 0.00 0.00 0.00 28 1012.6
20200328205118 75 348 2.0 9.0 0.00 0.00 0.00 30 1012.5
20200328204514 76 1 4.0 10.0 0.00 0.00 0.00 25 1012.6
20200328203911 76 25 3.0 13.0 0.00 0.00 0.00 25 1012.5
20200328203308 76 320 4.0 13.0 0.00 0.00 0.00 27 1012.7
20200328202705 76 300 4.0 16.0 0.00 0.00 0.00 27 1012.7
20200328202103 76 352 4.0 16.0 0.00 0.00 0.00 29 1012.7
20200328201459 77 303 6.0 14.0 0.00 0.00 0.00 27 1012.9
20200328200856 77 345 3.0 13.0 0.00 0.00 0.00 27 1012.7
20200328200253 77 267 4.0 11.0 0.00 0.00 0.00 26 1012.8
20200328195650 76 285 4.0 17.0 0.00 0.00 0.00 27 1012.8
20200328195047 76 284 5.0 17.0 0.00 0.00 0.00 26 1013.0
20200328194444 76 265 3.0 18.0 0.00 0.00 0.00 28 1012.9
20200328193842 76 278 3.0 13.0 0.00 0.00 0.00 28 1013.0
20200328193238 76 353 6.0 14.0 0.00 0.00 0.00 27 1013.0
20200328192635 77 277 4.0 14.0 0.00 0.00 0.00 26 1013.0
20200328192032 76 301 3.0 14.0 0.00 0.00 0.00 29 1012.9
20200328191429 76 258 5.0 15.0 0.00 0.00 0.00 27 1012.9
20200328190826 76 277 6.0 15.0 0.00 0.00 0.00 29 1012.9
20200328190223 76 322 3.0 9.0 0.00 0.00 0.00 33 1013.0
20200328185703 76 310 4.0 12.0 0.00 0.00 0.00 31 1013.0
20200328185017 75 338 3.0 12.0 0.00 0.00 0.00 34 1013.1
20200328184414 75 271 4.0 13.0 0.00 0.00 0.00 35 1013.2
20200328183811 75 347 3.0 10.0 0.00 0.00 0.00 36 1013.1
20200328183208 75 269 3.0 12.0 0.00 0.00 0.00 36 1013.2
20200328182605 75 334 4.0 12.0 0.00 0.00 0.00 39 1013.1
20200328182002 75 281 4.0 16.0 0.00 0.00 0.00 38 1013.0
20200328181358 75 266 5.0 16.0 0.00 0.00 0.00 36 1013.1
20200328180755 75 305 3.0 13.0 0.00 0.00 0.00 38 1013.0
20200328180152 75 2 3.0 13.0 0.00 0.00 0.00 37 1013.2
20200328175550 74 331 3.0 9.0 0.00 0.00 0.00 40 1013.2
20200328174947 74 2 3.0 10.0 0.00 0.00 0.00 39 1013.1
20200328174343 73 315 2.0 9.0 0.00 0.00 0.00 40 1013.2
20200328173740 72 348 3.0 12.0 0.00 0.00 0.00 40 1013.2
20200328173137 72 353 4.0 12.0 0.00 0.00 0.00 39 1013.3
20200328172534 71 323 2.0 10.0 0.00 0.00 0.00 45 1013.3
20200328171931 70 335 2.0 8.0 0.00 0.00 0.00 47 1013.0
20200328171328 69 339 2.0 8.0 0.00 0.00 0.00 51 1013.2
20200328170725 69 332 3.0 5.0 0.00 0.00 0.00 50 1013.1
20200328170122 69 353 1.0 6.0 0.00 0.00 0.00 50 1013.1
20200328165519 69 356 1.0 6.0 0.00 0.00 0.00 50 1013.1
20200328164916 68 33 2.0 5.0 0.00 0.00 0.00 49 1012.7
20200328164313 69 342 1.0 8.0 0.00 0.00 0.00 48 1013.1
20200328163710 69 3 3.0 9.0 0.00 0.00 0.00 47 1012.8
20200328162504 69 337 2.0 8.0 0.00 0.00 0.00 56 1012.7
20200328161901 69 344 4.0 11.0 0.00 0.00 0.00 58 1012.4
20200328161258 69 335 4.0 11.0 0.00 0.00 0.00 61 1012.2
20200328160655 68 331 3.0 9.0 0.00 0.00 0.00 62 1012.4
20200328160053 67 334 3.0 8.0 0.00 0.00 0.00 66 1012.4
20200328155449 66 311 1.0 6.0 0.00 0.00 0.00 67 1012.7
20200328154846 66 2 1.0 6.0 0.00 0.00 0.00 67 1012.7
20200328154243 66 321 2.0 8.0 0.00 0.00 0.00 68 1012.5
20200328153640 66 322 1.0 7.0 0.00 0.00 0.00 68 1012.1
20200328153036 66 345 2.0 6.0 0.00 0.00 0.00 67 1012.0
20200328152433 66 343 2.0 6.0 0.00 0.00 0.00 68 1012.2
20200328151830 66 335 3.0 8.0 0.00 0.00 0.00 67 1011.6
20200328151227 65 331 2.0 8.0 0.00 0.00 0.00 67 1011.7
20200328150623 65 1.0 8.0 0.00 0.00 0.00 67 1011.8
20200328150016 65 349 3.0 9.0 0.00 0.00 0.00 66 1011.8
20200328145413 65 356 1.0 10.0 0.00 0.00 0.00 68 1011.5
20200328144810 65 317 1.0 9.0 0.00 0.00 0.00 71 1011.1
20200328144207 65 359 2.0 10.0 0.00 0.00 0.00 75 1011.1
20200328143604 64 346 3.0 10.0 0.00 0.00 0.00 77 1011.3
20200328143001 64 340 2.0 9.0 0.00 0.00 0.00 78 1011.0
20200328142358 63 325 2.0 5.0 0.00 0.00 0.00 79 1011.5
20200328141755 64 338 1.0 8.0 0.00 0.00 0.00 79 1011.4
20200328141152 64 331 2.0 8.0 0.00 0.00 0.00 78 1011.6
20200328140549 65 323 3.0 11.0 0.00 0.00 0.00 76 1011.5
20200328135946 67 345 4.0 17.0 0.00 0.00 0.00 78 1011.2
20200328135343 72 301 6.0 12.0 0.00 0.00 0.00 95 1011.2
20200328134830 72 293 2.0 7.0 0.00 0.00 0.00 95 1010.4
20200328134137 72 258 3.0 7.0 0.00 0.00 0.00 95 1010.1
20200328133534 72 274 1.0 6.0 0.00 0.00 0.00 95 1010.2
20200328132931 72 245 1.0 4.0 0.00 0.00 0.00 95 1010.1
20200328132328 72 250 1.0 4.0 0.00 0.00 0.00 95 1010.0
20200328131725 72 268 2.0 4.0 0.00 0.00 0.00 96 1009.7
20200328131122 72 285 1.0 4.0 0.00 0.00 0.00 96 1009.5
20200328130519 72 1.0 6.0 0.00 0.00 0.00 96 1009.1
20200328125915 72 194 2.0 5.0 0.00 0.00 0.00 96 1008.9
20200328125312 71 178 2.0 7.0 0.00 0.00 0.00 96 1008.8
20200328124710 71 183 1.0 3.0 0.00 0.00 0.00 95 1008.4
20200328124106 71 0.0 2.0 0.00 0.00 0.00 95 1006.9
20200328123504 71 0.0 3.0 0.00 0.00 0.00 95 1006.8
20200328122900 71 183 1.0 3.0 0.00 0.00 0.00 95 1007.3
20200328122438 71 182 1.0 4.0 0.00 0.00 0.00 95 1008.0
20200328121654 71 186 2.0 4.0 0.00 0.00 0.00 95 1008.0
20200328121051 72 182 1.0 3.0 0.00 0.00 0.00 95 1008.1
20200328120448 72 182 1.0 4.0 0.00 0.00 0.00 95 1008.0
20200328115845 72 199 1.0 4.0 0.00 0.00 0.00 95 1007.6
20200328115242 72 0.0 6.0 0.00 0.00 0.00 95 1007.8
20200328114639 72 247 2.0 6.0 0.00 0.00 0.00 95 1007.9
20200328114036 72 176 1.0 4.0 0.00 0.00 0.00 95 1007.9
20200328113433 72 208 1.0 5.0 0.00 0.00 0.00 95 1007.6
20200328112830 72 197 1.0 8.0 0.00 0.00 0.00 95 1007.8
20200328112227 72 245 2.0 8.0 0.00 0.00 0.00 95 1007.9
20200328111624 72 182 1.0 4.0 0.00 0.00 0.00 95 1007.5
20200328111021 72 1.0 5.0 0.00 0.00 0.00 95 1007.5
20200328110418 72 181 1.0 5.0 0.00 0.00 0.00 95 1007.6
20200328105830 72 192 1.0 4.0 0.00 0.00 0.00 95 1007.6
20200328105212 72 190 1.0 4.0 0.00 0.00 0.00 95 1007.7
20200328104609 72 0.0 2.0 0.00 0.00 0.00 95 1007.4
20200328104007 72 0.0 3.0 0.00 0.00 0.00 95 1006.8
20200328103403 72 0.0 3.0 0.00 0.00 0.00 95 1006.6
20200328102800 72 174 1.0 7.0 0.00 0.00 0.00 95 1007.1
20200328102156 72 190 1.0 3.0 0.00 0.00 0.00 95 1007.1
20200328101553 72 197 1.0 4.0 0.00 0.00 0.00 95 1007.2
20200328100950 72 177 1.0 4.0 0.00 0.00 0.00 95 1007.2
20200328100347 72 191 1.0 7.0 0.00 0.00 0.00 95 1006.9
20200328095744 72 181 2.0 7.0 0.00 0.00 0.00 95 1007.0
20200328095141 71 190 1.0 5.0 0.00 0.00 0.00 95 1007.5
20200328094538 71 197 1.0 5.0 0.00 0.00 0.00 95 1006.8
20200328093935 71 202 1.0 5.0 0.00 0.00 0.00 95 1007.2
20200328093438 71 185 1.0 4.0 0.00 0.00 0.00 95 1007.1
20200328092729 71 156 1.0 5.0 0.00 0.00 0.00 95 1007.0
20200328090920 72 186 1.0 3.0 0.00 0.00 0.00 95 1007.0
20200328090317 72 186 1.0 3.0 0.00 0.00 0.00 95 1006.6
20200328085714 72 0.0 5.0 0.00 0.00 0.00 95 1006.2
20200328085111 72 174 2.0 7.0 0.00 0.00 0.00 95 1006.2
20200328084508 72 192 2.0 7.0 0.00 0.00 0.00 95 1006.4
20200328083905 72 164 2.0 7.0 0.00 0.00 0.00 95 1006.6
20200328083302 72 176 2.0 7.0 0.00 0.00 0.00 95 1007.1
20200328082659 72 204 2.0 10.0 0.00 0.00 0.00 95 1008.1
20200328082056 72 176 3.0 11.0 0.00 0.00 0.00 95 1007.8
20200328081453 72 257 1.0 7.0 0.00 0.00 0.00 95 1007.3
20200328080850 72 272 1.0 7.0 0.00 0.00 0.00 95 1006.5
20200328080247 72 202 2.0 9.0 0.00 0.00 0.00 95 1006.1
20200328075644 72 152 2.0 6.0 0.00 0.00 0.00 95 1006.5
20200328075041 72 153 2.0 6.0 0.00 0.00 0.00 95 1006.7
20200328073835 72 166 2.0 6.0 0.00 0.00 0.00 95 1007.6
20200328073231 72 170 2.0 8.0 0.00 0.00 0.00 95 1007.4
20200328072628 72 161 2.0 8.0 0.00 0.00 0.00 95 1007.2
20200328072025 73 180 3.0 7.0 0.00 0.00 0.00 95 1007.6
20200328071422 72 157 3.0 6.0 0.00 0.00 0.00 95 1007.2
20200328070819 72 168 2.0 6.0 0.00 0.00 0.00 95 1007.2
20200328070216 72 136 2.0 5.0 0.00 0.00 0.00 95 1006.7
20200328065613 73 194 1.0 6.0 0.00 0.00 0.00 95 1007.2
20200328065010 73 168 3.0 6.0 0.00 0.00 0.00 95 1007.4
20200328064407 73 152 1.0 10.0 0.00 0.00 0.00 95 1007.9
20200328063804 73 231 2.0 10.0 0.00 0.00 0.00 95 1008.6
20200328063201 73 169 2.0 5.0 0.00 0.00 0.00 95 1008.0
20200328062558 73 177 2.0 6.0 0.00 0.00 0.00 95 1008.2